• MPC Preparation (Info)

  • MPEC 2013-E37 : 2013 EV27

    The following Minor Planet Electronic Circular may be linked-to from your own Web pages, but must not otherwise be redistributed electronically.

    A form allowing access to any MPEC is at the bottom of this page.


    Read MPEC 2013-E36 Read MPEC 2013-E38


    M.P.E.C. 2013-E37                                Issued 2013 Mar.  9, 20:05 UT
    
         The Minor Planet Electronic Circulars contain information on unusual
             minor planets and routine data on comets.  They are published
       on behalf of Commission 20 of the International Astronomical Union by the
              Minor Planet Center, Smithsonian Astrophysical Observatory,
                              Cambridge, MA 02138, U.S.A.
    
                 Prepared using the Tamkin Foundation Computer Network
    
                                  MPC@CFA.HARVARD.EDU
                URL https://www.minorplanetcenter.net/    ISSN 1523-6714
    
                                       2013 EV27
    
    Observations:
         K13E27V* C2013 03 05.41619 11 03 18.221-04 17 27.13         20.6 wLEE037F51
         K13E27V  C2013 03 05.43112 11 03 24.440-04 18 44.91         20.6 wLEE037F51
         K13E27V  C2013 03 05.44605 11 03 30.595-04 20 01.78         20.5 wLEE037F51
         K13E27V 2C2013 03 06.37468111 10 15.057-05 26 37.24         20.6 RtEE037568
         K13E27V 2C2013 03 06.37593211 10 15.411-05 26 41.85         20.6 RtEE037568
         K13E27V 2C2013 03 06.37718511 10 15.769-05 26 46.40         20.7 RtEE037568
         K13E27V |C2013 03 09.17457 11 21 37.50 -07 16 11.3          21.4 VuEE037807
         K13E27V |C2013 03 09.18004 11 21 38.12 -07 16 19.8          21.5 VuEE037807
         K13E27V |C2013 03 09.18551 11 21 38.73 -07 16 28.3          21.2 VuEE037807
    
    Observer details:
    568 Mauna Kea.  Observer D. Woodworth.  Measurers D. J. Tholen,
        R. J. Wainscoat, M. Micheli.  3.6-m Canada-France-Hawaii Telescope.
    807 Cerro Tololo.  Observers T. Linder, R. Holmes, H. Tanquary.  0.41-m f/11
        Ritchey-Chretien + CCD.
    F51 Pan-STARRS 1, Haleakala.  Observers N. Primak, A. Schultz, S. Watters,
        T. Goggia.  Measurer PS1 Science Consortium.  1.8-m Ritchey-Chretien
        + CCD.
    
    Orbital elements:
    2013 EV27                                                Earth MOID = 0.0019 AU
    Epoch 2013 Feb. 17.0 TT = JDT 2456340.5                 MPC
    M   8.85954              (2000.0)            P               Q
    n   0.34936640     Peri.  126.88559     -0.30018869     -0.95355715
    a   1.9965581      Node   340.53892     +0.84976835     -0.25551851
    e   0.5723642      Incl.    4.27050     +0.43333648     -0.15949622
    P   2.82           H   27.0           G   0.15
    From 9 observations 2013 Mar. 5-9.  E-assumed.
    
    Ephemeris:
    2013 EV27                a,e,i = 2.00, 0.57, 4                   q = 0.8538
    Date    TT    R. A. (2000) Decl.     Delta      r     Elong.  Phase     V
    2013 02 07    23 49 11.0 +11 30 49   0.1606  0.8805    45.2   127.4    28.2
    ...
    2013 02 22    00 17 56.3 +16 08 44   0.04906 0.9517    39.2   139.0    27.1
    ...
    2013 03 02    09 36 44.8 +10 21 25   0.01251 1.0029   161.3    18.4    18.4
    ...
    2013 03 08    11 17 50.7 -06 41 02   0.05414 1.0457   168.3    11.1    21.5
    2013 03 09    11 21 06.3 -07 12 24   0.06145 1.0531   168.2    11.1    21.7
    2013 03 10    11 23 40.1 -07 36 31   0.06881 1.0606   168.2    11.1    22.0
    ...
    2013 03 16    11 32 01.6 -08 46 19   0.1140  1.1069   169.0     9.8    23.1
    ...
    2013 03 24    11 36 50.0 -09 06 14   0.1776  1.1714   168.3    10.0    24.2
    ...
    2013 04 08    11 43 13.5 -08 54 03   0.3114  1.2971   159.2    15.9    25.9
    
    A. U. Tomatic                (C) Copyright 2013 MPC           M.P.E.C. 2013-E37
    

    Read MPEC 2013-E36 Read MPEC 2013-E38


    MPEC number:

    Enter an MPEC number in one of the following forms:

    • 1997-B01 (the full form)
    • J97B01 (the packed version of the full form)
    • B01 (the abbreviated form)